Location: Bucquoy
(50.1391°N, 2.7097°E)
Time: 23:42:14
(UTC+00:00)

Cosmos 1975 Rocket - Pass Details

Date: 06 May 2021
Orbit: 604 x 633 km, 82.5° (Epoch: 21 June)

Event Time Altitude Azimuth Distance (km) Brightness Sun altitude
Exits shadow 03:13:29 11° 216° (SW) 1,887 4.9 -9.2°
Maximum altitude 03:17:23 41° 286° (WNW) 900 3.6 -8.7°
Drops below altitude 10° 03:21:32 10° 357° (N) 1,978 6.2 -8.2°
Sets 03:23:52 0° 5° (N) 2,884 7.2 -7.9°
